GW1482 Weather Reports


Display with metric or nautical units.
time (UTC)temp
F
wind
direction
speed
MPH
gust
MPH
rain 1hr
in
rain 24hr
in
rain mn
in
humidity
%
barometer
mb
20260508064520 34 47 1.0 1.0 0.00 0.00 0.00 96 1000.6
20260508063925 35 47 1.0 1.0 0.00 0.00 0.00 96 1000.6
20260508063318 35 57 1.0 1.0 0.00 0.00 0.00 96 1000.6
20260508062742 35 44 1.0 1.0 0.00 0.00 0.00 96 1000.6
20260508062146 35 24 0.0 1.0 0.00 0.00 0.00 96 1000.3
20260508061530 36 29 0.0 0.0 0.00 0.00 0.00 95 1000.6
20260508060909 36 42 1.0 1.0 0.00 0.00 0.00 94 1000.6
20260508060341 36 35 0.0 0.0 0.00 0.00 0.00 94 1000.6
20260508055751 36 51 1.0 1.0 0.00 0.00 0.00 94 1000.6
20260508055141 36 56 1.0 1.0 0.00 0.00 0.00 94 1001.0
20260508054544 36 52 1.0 1.0 0.00 0.00 0.00 93 1000.6
20260508052737 37 44 1.0 1.0 0.00 0.00 0.00 92 1000.6
20260508052132 37 38 0.0 1.0 0.00 0.00 0.00 92 1000.6
20260508051526 37 38 0.0 0.0 0.00 0.00 0.00 91 1000.6
20260508050945 38 41 0.0 1.0 0.00 0.00 0.00 90 1000.6
20260508050309 38 51 1.0 1.0 0.00 0.00 0.00 89 1001.0
20260508045724 38 54 1.0 1.0 0.00 0.00 0.00 88 1000.6
20260508045128 38 41 0.0 0.0 0.00 0.00 0.00 89 1001.0
20260508044542 39 55 1.0 1.0 0.00 0.00 0.00 86 1001.0
20260508043936 38 58 1.0 1.0 0.00 0.00 0.00 84 1001.0
20260508043347 39 49 1.0 1.0 0.00 0.00 0.00 85 1000.6
20260508042723 39 40 0.0 0.0 0.00 0.00 0.00 84 1000.6
20260508042141 40 40 0.0 0.0 0.00 0.00 0.00 84 1001.0
20260508041532 41 40 0.0 0.0 0.00 0.00 0.00 83 1000.6
20260508040318 42 40 0.0 1.0 0.00 0.00 0.00 79 1000.6
20260508035120 42 40 1.0 1.0 0.00 0.00 0.09 78 1000.6
20260508034526 42 40 0.0 0.0 0.00 0.00 0.09 77 1000.3
20260508033916 42 40 0.0 1.0 0.00 0.00 0.09 75 1000.3
20260508033321 42 40 0.0 0.0 0.00 0.00 0.09 75 1000.3
20260508032734 42 40 0.0 0.0 0.00 0.00 0.09 77 1000.0
20260508032146 42 40 0.0 1.0 0.00 0.00 0.09 80 1000.0
20260508031526 42 39 0.0 0.0 0.00 0.00 0.09 82 1000.0
20260508030931 42 40 0.0 0.0 0.00 0.00 0.09 79 1000.0
20260508030311 42 39 0.0 0.0 0.00 0.00 0.09 79 1000.3
20260508025719 42 40 0.0 0.0 0.00 0.00 0.09 80 1000.3
20260508025114 43 40 0.0 0.0 0.00 0.00 0.09 79 1000.0
20260508024525 43 40 0.0 0.0 0.00 0.00 0.09 79 1000.0
20260508023946 43 40 0.0 0.0 0.00 0.00 0.09 82 1000.0
20260508023341 43 40 0.0 0.0 0.00 0.00 0.09 80 1000.0
20260508022723 43 40 0.0 0.0 0.00 0.00 0.09 78 1000.0
20260508021515 44 40 0.0 0.0 0.00 0.00 0.09 80 999.6
20260508020945 44 40 0.0 0.0 0.00 0.00 0.09 81 999.6
20260508020349 44 39 0.0 0.0 0.00 0.00 0.09 77 999.6
20260508015738 44 39 0.0 0.0 0.00 0.00 0.09 74 999.6
20260508015145 44 47 1.0 1.0 0.00 0.00 0.09 78 999.3
20260508014517 45 36 0.0 0.0 0.00 0.00 0.09 75 999.3
20260508012725 45 36 0.0 0.0 0.00 0.00 0.09 75 999.3
20260508011528 46 31 0.0 0.0 0.00 0.00 0.09 76 998.9
20260508010935 46 39 1.0 1.0 0.00 0.00 0.09 76 998.9
20260508010349 46 35 0.0 0.0 0.00 0.00 0.09 75 998.6
20260508005736 46 33 0.0 0.0 0.00 0.00 0.09 73 998.9
20260508003908 46 32 0.0 0.0 0.00 0.00 0.09 75 998.6
20260508003340 47 32 0.0 1.0 0.00 0.00 0.09 73 998.9
20260508002734 47 31 0.0 0.0 0.00 0.00 0.09 72 998.6
20260508002110 48 32 0.0 0.0 0.00 0.00 0.09 72 998.6
20260508001532 49 32 0.0 0.0 0.00 0.00 0.09 71 998.6
20260508000949 49 37 0.0 1.0 0.00 0.00 0.09 64 998.6
20260508000335 50 22 0.0 0.0 0.00 0.00 0.09 64 998.3
20260507235747 50 29 0.0 1.0 0.00 0.00 0.09 63 998.3
20260507235119 51 347 2.0 2.0 0.00 0.00 0.09 57 998.3
20260507234551 51 342 1.0 2.0 0.00 0.00 0.09 59 998.3
20260507233938 52 7 2.0 2.0 0.00 0.00 0.09 58 998.3
20260507233347 52 249 2.0 3.0 0.00 0.00 0.09 59 998.3
20260507231535 53 17 1.0 1.0 0.00 0.00 0.09 56 998.3
20260507225744 54 306 2.0 3.0 0.00 0.00 0.09 56 997.9
20260507225120 54 21 1.0 1.0 0.00 0.00 0.09 57 997.6
20260507224527 53 305 4.0 8.0 0.00 0.00 0.09 61 997.9
20260507223918 54 293 3.0 3.0 0.00 0.00 0.09 58 997.6
20260507223338 54 330 2.0 2.0 0.00 0.00 0.09 56 997.9
20260507222719 54 332 1.0 2.0 0.00 0.00 0.09 60 997.9
20260507221516 53 8 1.0 1.0 0.00 0.00 0.09 60 997.6
20260507220312 53 17 1.0 1.0 0.00 0.00 0.09 62 997.2
20260507215738 53 333 1.0 1.0 0.00 0.00 0.09 60 997.2
20260507215144 54 11 0.0 1.0 0.00 0.00 0.09 61 997.6
20260507213944 54 258 2.0 3.0 0.00 0.00 0.09 58 997.2
20260507212737 56 310 2.0 3.0 0.00 0.00 0.09 55 997.2
20260507211532 58 237 3.0 3.0 0.00 0.00 0.09 51 996.9
20260507210928 57 333 1.0 1.0 0.00 0.00 0.09 60 996.6
20260507210344 56 36 1.0 2.0 0.00 0.00 0.09 57 996.6
20260507204547 61 308 2.0 2.0 0.00 0.00 0.09 53 996.6
20260507202737 57 296 1.0 2.0 0.00 0.00 0.09 57 996.6
20260507202152 54 355 1.0 1.0 0.00 0.00 0.09 63 996.9
20260507201538 55 255 2.0 3.0 0.00 0.00 0.09 62 996.9
20260507200938 54 284 2.0 3.0 0.00 0.00 0.09 67 997.2
20260507195752 55 334 2.0 2.0 0.00 0.00 0.09 65 997.2
20260507195151 56 6 1.0 1.0 0.00 0.00 0.09 62 996.9
20260507194514 58 165 1.0 2.0 0.00 0.00 0.09 60 997.2
20260507193951 56 304 4.0 6.0 0.00 0.00 0.09 56 997.2
20260507192732 55 342 3.0 4.0 0.00 0.00 0.09 58 997.2
20260507192146 56 19 0.0 0.0 0.00 0.00 0.09 60 997.2
20260507191535 57 313 2.0 2.0 0.00 0.00 0.09 64 997.9
20260507190936 57 315 4.0 6.0 0.00 0.00 0.09 59 997.6
20260507185724 58 284 2.0 3.0 0.00 0.00 0.09 62 997.6
20260507185150 58 34 1.0 1.0 0.00 0.00 0.09 59 997.6
20260507184549 57 272 3.0 3.0 0.00 0.00 0.09 59 997.2
20260507183951 56 236 2.0 2.0 0.00 0.00 0.09 64 997.6
20260507183308 55 312 4.0 4.0 0.00 0.00 0.09 61 997.9
20260507182714 55 20 0.0 0.0 0.00 0.00 0.09 66 997.6
20260507182150 54 39 1.0 1.0 0.00 0.00 0.09 68 997.6
20260507181510 55 30 0.0 1.0 0.00 0.00 0.09 66 997.6
20260507180928 55 340 2.0 2.0 0.00 0.00 0.09 65 997.9
20260507180324 54 353 1.0 1.0 0.00 0.00 0.09 68 997.9
20260507174520 52 29 0.0 0.0 0.00 0.00 0.09 69 997.6
20260507173945 53 303 2.0 2.0 0.00 0.00 0.09 68 997.6
20260507172732 51 46 1.0 1.0 0.00 0.00 0.09 68 997.9
20260507172129 51 27 0.0 0.0 0.00 0.00 0.09 71 998.3
20260507170911 52 50 0.0 1.0 0.00 0.00 0.09 68 998.3
20260507170321 52 33 1.0 1.0 0.00 0.00 0.09 69 998.3
20260507165750 52 16 1.0 1.0 0.00 0.00 0.09 68 998.3
20260507165135 52 45 0.0 1.0 0.00 0.00 0.09 66 998.6
20260507163923 52 298 1.0 2.0 0.00 0.00 0.09 67 998.6
20260507162722 54 298 2.0 2.0 0.00 0.00 0.09 70 998.3
20260507162152 53 29 0.0 0.0 0.00 0.00 0.09 71 998.3
20260507161555 52 18 2.0 2.0 0.00 0.00 0.09 67 998.3
20260507160923 52 48 1.0 1.0 0.00 0.00 0.09 72 998.3
20260507160346 52 224 2.0 2.0 0.00 0.00 0.09 68 998.6
20260507155731 51 251 2.0 3.0 0.00 0.00 0.09 69 998.9
20260507155123 50 304 2.0 2.0 0.00 0.00 0.09 71 998.6
20260507154519 50 30 0.0 0.0 0.00 0.00 0.09 75 998.9
20260507153911 50 92 1.0 1.0 0.00 0.00 0.09 73 998.9
20260507153315 49 61 2.0 2.0 0.00 0.00 0.09 74 998.6
20260507152750 49 30 0.0 0.0 0.00 0.00 0.09 78 998.6
20260507151534 49 329 1.0 2.0 0.00 0.00 0.09 75 998.9
20260507150347 48 2 1.0 1.0 0.00 0.00 0.09 79 998.6
20260507145715 48 204 0.0 0.0 0.00 0.00 0.09 82 998.9
20260507145111 48 16 0.0 0.0 0.00 0.00 0.09 88 998.9
20260507144515 46 315 1.0 2.0 0.00 0.00 0.09 90 998.9
20260507143939 46 346 0.0 0.0 0.00 0.00 0.09 94 999.3
20260507143320 46 358 0.0 1.0 0.00 0.00 0.09 99 998.9
20260507142123 45 354 0.0 0.0 0.00 0.00 0.09 99 999.3
20260507141517 45 347 0.0 0.0 0.00 0.00 0.09 99 998.9
20260507140926 45 346 1.0 1.0 0.00 0.00 0.09 99 999.3
20260507140342 45 4 0.0 0.0 0.00 0.00 0.09 99 999.3
20260507135143 45 349 0.0 1.0 0.00 0.00 0.09 99 999.6
20260507134519 44 9 1.0 1.0 0.00 0.00 0.09 99 999.3
20260507133319 44 357 1.0 1.0 0.00 0.00 0.09 99 999.3
20260507132743 44 344 1.0 1.0 0.00 0.00 0.09 99 999.3
20260507132122 45 337 0.0 1.0 0.00 0.00 0.09 99 999.6
20260507130911 44 354 1.0 1.0 0.00 0.00 0.09 99 999.3
20260507130311 44 358 0.0 0.0 0.00 0.00 0.09 99 999.3
20260507124550 44 4 0.0 0.0 0.00 0.00 0.09 99 999.6
20260507123943 44 0 1.0 1.0 0.00 0.00 0.09 99 999.6
20260507123343 44 11 0.0 0.0 0.00 0.00 0.09 99 1000.0
20260507122748 44 4 0.0 0.0 0.00 0.00 0.09 99 1000.0
20260507122127 44 4 1.0 1.0 0.00 0.00 0.09 99 999.6
20260507120340 44 3 0.0 0.0 0.00 0.00 0.09 99 999.6
20260507115712 43 2 0.0 0.0 0.00 0.00 0.09 99 999.6
20260507115146 43 2 0.0 1.0 0.00 0.00 0.09 99 999.6
20260507114527 43 10 0.0 0.0 0.00 0.00 0.09 99 999.6
20260507113916 43 11 0.0 0.0 0.00 0.00 0.09 99 999.3
20260507113326 43 11 0.0 0.0 0.00 0.00 0.09 99 999.6
20260507112752 43 12 0.0 0.0 0.00 0.00 0.09 99 999.3
20260507111513 43 16 0.0 0.0 0.00 0.00 0.09 99 998.9
20260507110940 43 17 0.0 0.0 0.00 0.00 0.09 99 998.9
20260507110320 43 17 0.0 1.0 0.00 0.00 0.09 99 998.9
20260507105717 43 19 0.0 0.0 0.00 0.00 0.09 99 998.9
20260507105143 43 14 0.0 0.0 0.00 0.00 0.09 99 998.9
20260507104546 43 16 0.0 0.0 0.00 0.00 0.09 99 998.9
20260507103320 43 16 0.0 0.0 0.00 0.00 0.09 99 998.6
20260507102729 43 16 0.0 0.0 0.00 0.00 0.09 99 998.6
20260507101525 43 17 0.0 0.0 0.00 0.00 0.09 99 998.9
20260507100912 43 17 0.0 0.0 0.00 0.00 0.09 99 998.6
20260507100332 43 17 0.0 0.0 0.00 0.00 0.09 99 998.9
20260507095740 43 17 0.0 0.0 0.00 0.00 0.09 99 998.6
20260507095110 43 19 0.0 0.0 0.00 0.00 0.09 99 998.9
20260507093930 43 18 0.0 0.0 0.00 0.00 0.09 99 998.9
20260507093344 43 9 0.0 0.0 0.00 0.00 0.09 99 998.9
20260507092744 44 9 0.0 0.0 0.00 0.00 0.09 99 998.6
20260507092130 44 8 0.0 0.0 0.00 0.00 0.09 99 998.9
20260507091510 44 20 0.0 0.0 0.00 0.00 0.09 99 998.6
20260507090939 44 12 0.0 1.0 0.00 0.00 0.09 99 998.6
20260507090318 44 10 0.0 1.0 0.00 0.00 0.09 99 998.6
20260507085715 44 7 0.0 1.0 0.00 0.00 0.09 99 998.6
20260507085109 44 21 0.0 0.0 0.00 0.00 0.09 99 998.3
20260507084541 44 23 0.0 0.0 0.00 0.00 0.09 99 998.6
20260507083925 44 327 1.0 1.0 0.00 0.00 0.09 99 998.6
20260507083327 44 348 1.0 2.0 0.00 0.00 0.09 99 998.9
20260507082121 45 150 1.0 1.0 0.00 0.00 0.09 99 998.9
20260507081530 45 353 1.0 1.0 0.00 0.00 0.09 99 998.6
20260507080917 46 14 1.0 1.0 0.00 0.00 0.08 99 998.3
20260507080337 46 4 2.0 2.0 0.00 0.00 0.08 99 998.6
20260507075716 46 217 3.0 3.0 0.00 0.00 0.08 99 998.3
20260507075135 47 2 1.0 1.0 0.00 0.00 0.08 99 998.3
20260507074541 47 9 0.0 0.0 0.00 0.00 0.08 99 998.6
20260507073952 47 9 1.0 1.0 0.00 0.00 0.08 99 998.6
20260507073328 47 348 1.0 2.0 0.00 0.00 0.08 99 998.6
20260507072748 47 9 1.0 1.0 0.00 0.00 0.08 99 998.6
20260507072116 47 285 2.0 3.0 0.00 0.00 0.07 99 998.6
20260507071537 47 353 1.0 1.0 0.00 0.00 0.07 99 998.6
20260507070310 47 1 0.0 1.0 0.00 0.00 0.07 99 998.6
20260507065753 47 5 0.0 1.0 0.00 0.00 0.07 99 998.6